TIMESTAMP,CO2_1_1_1,H2O_1_1_1,TAU_1_1_1,TAU_SSITC_TEST_1_1_1,H_1_1_1,H_SSITC_TEST_1_1_1,LE_1_1_1,LE_SSITC_TEST_1_1_1,FC_1_1_1,FC_SSITC_TEST_1_1_1,WD_0_0_1,WS_0_0_1,WS_MAX_0_0_1,U_SIGMA_0_0_1,V_SIGMA_0_0_1,W_SIGMA_0_0_1,USTAR_0_0_1,MO_LENGTH_0_0_1,ZL_0_0_1,FETCH_MAX_0_0_1,FETCH_70_0_0_1,FETCH_80_0_0_1,FETCH_90_0_0_1,PA_0_0_1,RH_0_0_1,TA_0_0_1,VPD_0_0_1,T_SONIC_0_0_1,T_SONIC_SIGMA_0_0_1
[yyyymmddHHMMSS],[mmolCO2 mol-1],[mmolH2O mol-1],[kg m-1 s-2],[#],[W m-2],[#],[W m-2],[#],[umolCO2 m-2 s-1],[#],[Decimal degrees],[m s-1],[m s-1],[m s-1],[m s-1],[m s-1],[m s-1],[m],[#],[m],[m],[m],[m],[kPa],[%],[deg C],[hPa],[deg C],[deg C]
20220809003000,400.66454330093978,13.007446436238030,0.18590691125886152,0,-25.414985009882017,0,67.904151779835829,0,-2.0255344792123946,0,335.13677596066952,2.0788601351111966,6.1119997424867130,0.92672727932972110,0.61484048279445336,0.43258745173203733,0.40735214875572179,221.92083457268521,8.5616116380352630E-002,119.33608197008685,218.18441813256052,261.11102342673246,326.88001676906350,93.900497376373352,61.642068965517240,17.405172413793082,7.6024642234205526,17.716955879907061,0.19202682593818640
20220809010000,402.00273083317938,12.988831430088279,6.5393828718289068E-002,0,-17.315882063389083,0,20.750746631392403,0,-0.13455224972185528,2,331.68324325698643,1.9310255708289192,4.1908766042923782,0.59264672818462716,0.40738462205585352,0.30047061012262360,0.24134866881410247,67.754809273783152,0.28042289844289775,105.08221702068521,192.12380696799380,229.92312783571063,287.83647237942705,93.924211454644109,63.631999999999998,16.884666666666647,6.9744178334825397,17.259927530924529,0.17732985332812179
20220809013000,403.05406610327492,13.260798056625484,4.2368044867811443E-003,1,-4.3448811587748342,0,3.8198357227349273,1,0.43378072571587861,0,318.23270772539394,1.5103962000496955,2.7602030203079120,0.34552189937197375,0.20013465580669354,0.11662378689961145,6.1398546094130868E-002,4.4465885850225089,4.2729385992663902,826.79461185908895,6873.0000000000000,-9999.,-9999.,93.943293083550358,66.178333333333327,16.596333333333348,6.3684112378122428,17.122860363430448,0.13430821955608591
20220809020000,402.97764725025735,12.962095072994938,1.6045983894061512E-002,1,-4.2505835364298639,1,13.967483248194608,1,0.79716072484343614,1,301.26097131097788,1.9068685412697211,2.6911739945758404,0.42731888115507505,0.22044042854928575,8.0662471489453741E-002,0.11941397388986687,33.446388015652495,0.56807329960736674,312.23478474298338,3229.0000000000000,6116.0000000000000,-9999.,93.981398785807301,65.566333333333333,16.390666666666675,6.3993514208352895,16.937164983961338,0.11811361953931566
20220809023000,404.42985214251530,12.930649415539509,1.3305723484206887E-002,1,1.1313084058672258,2,2.3573662359964249,1,0.32552274248197643,2,288.11472601270486,1.8841369695411445,2.6491698232739567,0.29680562282698331,0.23201812447726131,7.0034981537966390E-002,0.10866735425156608,-94.723227054598979,-0.20058438242447438,300.91024325919227,1036.0000000000000,1459.0000000000000,2489.0000000000000,94.015570246958163,66.612333333333339,16.110000000000014,6.0949201909777120,16.685269770507603,0.18337667913971620
20220809030000,402.64138728120253,13.107316205325500,5.8162008721481286E-003,1,-7.5723471607784036,2,9.8796569751135657,1,1.9899689970603249,1,270.34114752093882,1.5245558690932759,1.9928519681528347,0.18069965149430442,0.17297495853735337,5.2554230606596558E-002,7.1840714596968169E-002,4.0899273939188125,4.6455592410394662,589.02925465025851,4626.0000000000000,8106.0000000000000,-9999.,94.040031635850696,67.465333333333334,16.127333333333354,5.9457783256016477,16.808135451422743,0.33692431666424827
20220809033000,404.60790330247727,13.602154129799548,3.8881023209190062E-002,1,47.272447254386478,1,-105.94073362076114,1,-8.4095190601186012,1,255.16719970764166,1.2440470701000728,2.1837257465158282,0.46518875928274528,0.25722080646632112,0.12087274526486790,0.18565351966634625,-11.308114245373643,-1.6802094131453658,47.391676566658084,147.00000000000000,202.00000000000000,330.00000000000000,94.046242126085076,71.480000000000004,15.803666666666686,5.1054096519007413,16.476787044948992,0.51881158981851849
20220809040000,404.30004539141851,13.672353965031723,3.7227855784624293E-002,1,22.428658628147534,1,-57.213912008430277,1,-5.0910667262820830,1,242.80568375119455,1.4725387582927958,2.1139760336685058,0.10548888688873188,0.36562085894544638,9.5929734269525072E-002,0.18172034216228952,-22.352326084241721,-0.85002339033497309,77.514483002949561,245.00000000000000,339.00000000000000,558.00000000000000,94.052237134204148,70.983000000000004,15.994333333333316,5.2580784599056578,16.637908794641817,0.23101454788901923
20220809043000,404.64887863059454,13.862428430550144,5.5746634212932465E-003,1,13.388955048528128,1,-27.621612181681307,2,-3.8036927355214281,1,230.85859810619871,1.8484009951422515,2.3598444721018033,0.17176134565701001,0.13493318146669928,8.6431973216696961E-002,7.0263396440869347E-002,-2.1647270744739275,-8.7770879867695957,124.09860001349573,348.00000000000000,466.00000000000000,730.00000000000000,94.063365773654510,74.090666666666664,15.542333333333318,4.5610942513812303,16.251696271260698,0.41006861785414395
20220809050000,405.27977092940478,13.459532601945812,1.2360877647924170E-002,1,14.066210898616538,1,16.993169859356264,0,-2.5997294815382634,1,218.78457253651072,2.1039115636572010,2.8670199450473146,0.25220106116914631,0.33660794581140308,0.17931950234358923,0.10448760442329169,-6.7759799502529798,-2.8040224645721743,154.09468948888519,443.00000000000000,597.00000000000000,945.00000000000000,94.072044261718759,75.250333333333330,14.843333333333362,4.1655079324221331,15.613655439588797,0.58151474942612247
20220809053000,415.04984592581121,13.726388481047758,4.2551257504676490E-002,1,24.298466774489956,1,-11.236003401630581,2,-9.7688351426458500,1,196.32278822793572,2.2542157152143720,3.1583265547877217,0.32779675991556456,0.49156630678169760,0.19869146786005254,0.19366886858050242,-24.980040454716850,-0.76060725499795301,130.48376075951640,405.00000000000000,557.00000000000000,909.00000000000000,94.078858566406254,79.712666666666664,14.256666666666661,3.2874747954232704,15.134357332017714,0.64003690727399720
20220809060000,414.20936878885135,13.644944601478542,4.9171121607320010E-003,1,5.1108657715034891,1,23.147125972931107,0,-3.1458287856417564,1,204.33701035583292,2.5678269279238295,3.4872254715797384,0.37699828097108506,0.34194069007847738,0.21948102383954510,6.5831197261419422E-002,-4.6639444047004899,-4.0738049923689319,270.49889446005545,760.00000000000000,1019.0000000000000,1598.0000000000000,94.068731313725905,79.527666666666661,14.199000000000012,3.3050851022452092,15.184634550162116,0.80088109453586764
20220809063000,414.96470689134975,13.492960166814447,2.0552691949431899E-002,0,-31.631318078227302,0,8.5671397839474199,0,7.8257721425308260,0,210.19479985388062,2.2316923168448692,3.6106356705472114,0.45046479266609152,0.27825075042287112,0.21121045381872475,0.13455675258889899,6.4345369036935951,2.9528154526697166,376.02774772381576,3067.0000000000000,5431.0000000000000,-9999.,94.062090046474751,79.370333333333335,14.055666666666639,3.2996839818370929,14.743265134236310,0.47690372281822285
20220809070000,427.37294712578893,13.684120098149144,2.6934437481196338E-002,0,-22.537867273481435,0,2.0195276486240856,1,5.5546539922027360,0,221.54065956909923,2.5389237167789078,3.8496323246892863,0.40981832668598334,0.27056903983170172,0.20212011104874875,0.15382303226485530,13.494791467355281,1.4079506190193567,382.20917769871056,3631.0000000000000,6714.0000000000000,-9999.,94.088871884551267,84.469999999999999,13.319000000000017,2.3677758099573247,14.029478968021181,0.44437910116700480
20220809073000,428.51969361308846,13.619491888545770,2.9349472272922880E-002,0,-21.943489500200208,0,-3.8320575312356384,1,3.2675561468647767,1,227.07507024559231,2.2844612286831034,3.8048841351938441,0.42280993186499022,0.30316657748004078,0.21884202908222516,0.16047316255305105,15.736627798276293,1.2073743017599463,287.58674344177825,2693.0000000000000,4959.0000000000000,-9999.,94.089711768446179,85.959999999999994,12.978999999999985,2.0935831956844413,13.683227374606702,0.53004440857377766
20220809080000,420.04786880556259,13.228048785395288,5.4082605681630889E-002,0,-24.704575006863603,0,-1.8863984904641136,2,2.2206619034504720,2,230.00823495577828,2.8008555410906153,4.1106404933847571,0.45575901174412714,0.31344384989976237,0.25760991779200804,0.21783883144652291,34.960798262747545,0.54346585158627336,109.49469432410385,200.19122276609957,239.57776409929826,299.92293132062258,94.081224496515233,83.359999999999999,13.001333333333321,2.4849110336123705,13.638795636513294,0.45236614384890173
20220809083000,429.57071875077548,13.494238181773241,3.8286765459998560E-002,0,-24.416437150707548,0,1.1711243966277822,2,3.7671820043993378,1,224.10057767852254,2.6973128399961102,4.2668624213084554,0.43694371238960261,0.33359107193422222,0.26362159966195992,0.18312498879278802,21.015284157103657,0.90410388258193286,296.69405954987349,2921.0000000000000,5455.0000000000000,-9999.,94.083020415147558,88.033333333333331,12.473333333333358,1.7262438705848127,13.030060902913419,0.33242127007186056
20220809090000,431.59000899293312,13.630634216017556,3.5137564030167573E-002,0,-19.249496546324007,0,-4.2424951152370109,0,2.0328040931038083,0,233.58020056340300,2.7940457192006165,4.6739229927872348,0.40123662957362299,0.29987039918032171,0.21865226379244160,0.17541157270268737,23.429466168340433,0.81094463968940766,332.93901961107633,3382.0000000000000,6373.0000000000000,-9999.,94.089836562934025,89.286666666666662,12.412333333333322,1.5392645405946110,13.107103842841298,0.34937325451982676
20220809093000,433.65837932249178,13.569096542790843,7.9994788121358087E-002,0,-35.036561714981751,0,-8.6798735075261693,0,2.3495154701617897,0,232.13654657158435,2.9911667662910233,5.0002060047611820,0.58231158488109680,0.44089476034103570,0.35180692808318731,0.26463212496623845,44.204542229994409,0.42982008276759848,99.706952162253060,182.29610845398193,218.16188274366223,273.11278916429609,94.107568216579864,89.013333333333335,12.392999999999972,1.5765322041417313,12.942433995564784,0.31281747409910871
20220809100000,437.09935173664246,13.559091580258881,7.4315301996044664E-002,0,-31.410612635294644,0,-3.1943696052759663,0,3.0183673032301019,0,232.48251831180522,2.7677757576462234,4.6364234014264900,0.60223859091832443,0.44475908526222241,0.32820596222560439,0.25495252882644520,44.102127754529178,0.43081821597709075,102.30696141791422,187.04975460375164,223.85078308676916,280.23461732439341,94.137688458767357,89.913333333333327,12.233666666666693,1.4323006000816099,12.793103669908305,0.33940829596669175
20220809103000,437.89555666026308,13.380929938257086,4.6455982039958536E-002,0,-15.611434824030473,0,-1.6636515254766160,2,2.3484968792471475,0,225.42203684296138,2.4985510477566222,3.9553454562389363,0.44018499793167504,0.37048705458843723,0.26730628600709960,0.20140475809099909,43.751849046985321,0.43426736043991671,99.839717489131388,182.53884581484476,218.45237736862799,273.47645396340704,94.164538674045133,91.049999999999997,11.846666666666692,1.2388914173492684,12.354834330240863,0.32433836262604687
20220809110000,436.44333732231883,13.264770602441844,7.4038140476779257E-002,0,-35.874576861012955,0,-10.851067451074668,0,2.2128294894856197,0,224.36608324234589,2.7221157955354700,4.6135618085132677,0.54669150541691247,0.40506599634027923,0.32038869593136754,0.25412399242547284,38.250495660210412,0.49672558935659772,104.02786557056788,190.19611624903141,227.61617438419205,284.94844041118102,94.184966171875004,91.653333333333336,11.617999999999995,1.1380533319174015,12.166732465955988,0.37067427456964502
20220809113000,437.02877777996889,13.251102870947424,9.8851500027003936E-002,0,-37.378801752250389,0,-8.0027397943955751,0,2.0257445616428820,0,225.88747655803232,2.4732524492781645,4.6043993068728746,0.61384609189479833,0.48109981074043895,0.37587688244608303,0.29373314320855715,56.693776788324101,0.33513378498207563,102.79707776083727,187.94584359320518,224.92317274282374,281.57712191938788,94.189394944661458,90.343333333333334,11.821000000000026,1.3344479596066186,12.239532962375222,0.32091942963584918
20220809120000,434.83302701635427,13.398166788385694,0.15846864956070358,0,-26.861746286851403,1,-0.51273307676361002,2,-0.38302771527205737,2,231.47761349898670,2.8163735808719204,4.9737242714352652,0.70033072359609927,0.60309708267440143,0.47921168352343774,0.37223904184541118,160.57890409020294,0.11832189357405888,102.30350630529146,187.04343755592555,223.84322319391788,280.22515323563312,94.201525941623260,88.213333333333338,12.352666666666664,1.6868503882821211,12.735571460299980,0.33651168642977364
20220809123000,430.02113803243202,13.674188333711276,0.17976262521371214,1,-25.539170016911797,1,8.9170765455877756,1,2.7396175742645608,1,230.61596338526783,2.3712393883654994,5.1656416720836793,0.70808679781150197,0.54090840760376768,0.47036169641476877,0.39706459234827024,205.02483346347657,9.2671700686369235E-002,109.34483419038106,199.91723064621610,239.24986551036162,299.51244119713590,94.215240923700463,84.986666666666665,13.235000000000014,2.2764888671411634,13.589344576084670,0.27690798277444917
20220809130000,422.32053505138259,14.178526596820872,0.12080760105261465,0,18.238739938388974,1,38.020861620472189,1,-5.6612752399947652,1,229.46403533338321,2.1403316860742057,4.6068710239093589,0.68078694654687100,0.59932918816908864,0.45666800580024963,0.32608024110389522,-159.02384041643771,-0.11947894070627689,95.638777868069170,174.85818836656995,209.26059207032716,261.96942950685707,94.217714382761272,82.766666666666666,14.199333333333357,2.7822360243216622,14.599156210499018,0.35667700116462064
20220809133000,415.46833767364245,14.826248612236880,0.23537560755087097,0,37.695097365041065,0,60.651882072521516,0,-7.1190383896549729,0,236.36379086346946,2.4130512491473382,5.3136020569016340,0.84888746222001910,0.66566190429870142,0.54958032834417403,0.45603925573233217,-210.49602532352876,-9.0262987012687423E-002,107.85287812282895,197.18945911974853,235.98541967574886,295.42574238543546,94.211987849609372,80.974333333333334,15.230000000000018,3.2828151376621828,15.783762137519091,0.37521737505468028
20220809140000,411.38021858724301,15.356130740013233,0.19413418246931335,0,39.780440336687263,0,79.643827600270626,0,-6.7189377138051913,0,243.27019896372289,2.3886102801535976,5.7670571781533386,0.93415125355310535,0.67198441843538348,0.53882324936166959,0.41516307101992173,-150.47479605610306,-0.12626699286514423,101.64190853390558,185.83382582404542,222.39562689000439,278.41293444115985,94.183033623914937,77.424333333333337,16.475333333333310,4.2182669925392471,17.070302702162053,0.37140817673653587
20220809143000,408.56637981454554,15.491578334697708,0.35376624483216601,0,67.864811513851009,0,113.54529586734998,0,-7.3600496791295793,0,260.81989496416435,3.0208807459578906,7.8508886677061271,1.2156724761334980,0.95209961333040238,0.70662077815104940,0.56156450458654927,-218.26756989172543,-8.7049120533229954E-002,104.18986998961375,190.49231199570664,227.97064504351306,285.39219561363234,94.164222720083998,72.858333333333334,17.569999999999993,5.4356984106615416,18.111286987589608,0.33391249680671758
20220809150000,403.78638949326165,15.574914785993320,0.53322824324650386,0,112.15246779381683,0,161.08792354590020,0,-9.6493635735509020,0,257.28773413202464,3.3502997711795870,7.3567391019393629,1.2374925619272164,1.1475455971170307,0.87275636457963157,0.69059735939818589,-245.59387357842573,-7.7363493328072422E-002,103.82941590292945,189.83328696431312,227.18196039827660,284.40485602652092,94.134666806423610,69.311333333333337,18.444000000000017,6.4933006946786529,18.952248280843150,0.38545729439306636
20220809153000,400.21158526505047,15.707225864451793,0.41673255681453858,0,132.53054263731761,0,158.61923774155065,0,-12.268096502085983,0,253.63558634262336,2.7364951082371403,7.3688980493252361,1.1977691425344934,1.0719882922291577,0.74592250975565777,0.61134929873423705,-144.17922029705460,-0.13178043244271967,106.79021577845764,195.24657343546608,233.66028173159046,292.51494559025474,94.129144696397560,66.635000000000005,19.208666666666659,7.4050638520128569,19.711237561543840,0.40731889441533387
20220809160000,398.24222531842031,15.601139056470473,0.47733537407558196,1,64.403562756223025,1,160.30677713618556,0,-4.7977520712234298,1,245.89253498331396,2.6818260091896784,7.2922505690998731,1.0259728123656335,1.2438020253186708,0.78811605926196093,0.65510913171826679,-365.02430113556545,-5.2051329023553528E-002,108.00246821752623,197.46295752216886,236.31272741097933,295.83549283019522,94.111490167751739,63.409999999999997,19.894999999999982,8.4746172658072307,20.381614962259960,0.40980836799310888
20220809163000,396.83268660885625,15.427607590277940,0.51523132678199779,0,159.86945583120013,1,228.65101767619979,0,-12.627411387175171,0,251.31833719075777,2.5875079452102541,7.0364584752932160,1.2204027328803104,1.1113764586461634,0.76678252371750477,0.68143682826110963,-165.48726744510893,-0.11481245834397609,113.93512051855103,208.30973805084713,249.29355339740513,312.08594660435307,94.102027910471094,60.058666666666667,20.591000000000008,9.6574155215422124,21.057386064768025,0.50516963525617509
20220809170000,396.47804296017461,15.103489300461087,0.57517155716801738,1,89.083798228445019,1,333.70035481606789,0,-10.979422226579931,0,234.71433742752254,2.5497771664989459,6.6871397985131029,1.2000946098896759,1.1768722183225475,0.78039947998160786,0.72083433149832632,-351.48437785820391,-5.4056456550865523E-002,117.50861106128471,214.84321846931766,257.11246078413188,321.87429082723173,94.090596433172891,56.333333333333336,21.285333333333313,11.018553484112333,21.699103165075599,0.45398516524953170
20220809173000,395.12743568541867,15.695050242980946,0.82781807471319580,1,190.84575287752901,0,194.93091003514587,0,-13.618795314033076,1,222.93799575282799,2.7512602520413760,7.8177666869719991,1.6113854236375234,1.1217174185778831,0.84817119428214416,0.86579334417932163,-284.29487641050008,-6.6832016953289899E-002,127.29152192526017,232.72949962805578,278.51777111119151,348.67119931018442,94.078592184027769,56.463333333333331,21.873666666666679,11.388293751985280,22.361633677164718,0.49324835886167501
20220809180000,395.36219011802370,15.486674629061449,0.58418653972985546,0,160.79513072249117,0,272.37917510400922,0,-13.334795098502680,0,222.70319877755830,2.7154201786065890,7.0369490246107880,1.3739714733596162,1.1525367125517858,0.83861139708521382,0.72799125956220556,-200.54422932382263,-9.4742192602911224E-002,111.81684228902694,204.43684985708666,244.65869537892047,306.28365435747054,94.050175734374989,54.082000000000001,22.356666666666683,12.369851460614827,22.871792733086522,0.45723460047935327
20220809183000,396.49427010634599,15.008795325781197,0.59135161231564615,0,166.36888618261528,0,222.45652523190566,1,-10.163046619480193,0,233.48049098025712,2.6925887358494505,7.8733136459988486,1.4423354911658965,1.2464353679901716,0.82146214396805817,0.73308613711331327,-197.88312457420781,-9.6016272438000858E-002,114.31648489113063,209.00699375385091,250.12799039230930,313.13056270407714,94.032365881293401,50.782666666666664,22.874333333333311,13.681769026409997,23.223938279893673,0.42937385653274474
20220809190000,396.33382483076673,15.054440559540708,0.61897858960764129,1,152.88889024892561,0,181.02223434697407,0,-9.3479828380252883,0,250.65173103012415,2.4652175918755570,7.9652070459670350,1.2141001422679234,1.2879994461645601,0.81306987508595840,0.75051546628198962,-231.04508538261979,-8.2235032043790277E-002,117.44656534855213,214.72977911797736,256.97670285339217,321.70433800756769,94.023459610677079,49.829333333333331,23.236333333333334,14.255489114470848,23.649515267266224,0.44557986576595321
20220809193000,396.49751481484645,15.597946424911145,0.59190431775404362,0,120.25892794784514,0,222.13548541463177,0,-10.063496620012680,0,265.16560317878810,2.7768152365969545,8.5049928907569008,1.5888156581597837,1.3700606731378557,0.85681929989730854,0.73459847327762939,-275.43854034955518,-6.8980905779878754E-002,110.70915209636804,202.41163890523887,242.23503511565309,303.24951930984906,94.009285228973894,50.258000000000003,23.680000000000007,14.516860230536125,24.152537054621803,0.44467866623317120
20220809200000,397.72259710515749,15.401533084523328,0.54559898052623779,0,160.27089975799433,0,306.22235332620761,0,-10.654703417212666,0,245.56833689482880,3.1031330932972239,8.5003049266134614,1.3035596488535000,1.3991109568089861,0.91573966747652857,0.70567637719974874,-183.17893792343426,-0.10372371526655363,101.65336083130323,185.85476427621126,222.42068486949162,278.44430405798983,93.988936701517176,48.750000000000000,23.972333333333324,15.222164767964143,24.384951221997198,0.45457846141838526
20220809203000,397.51652600681302,15.562620760102629,0.62622119732959991,0,136.36059440805454,0,183.22240504997649,0,-8.2619880281281546,0,247.04030744583108,3.1300463671135792,8.5295191029580124,1.6014885298305970,1.2652612269141370,0.88859241696828251,0.75627423722277543,-264.97459177363862,-7.1704988288957300E-002,110.06171165896454,201.22791129512859,240.81841549460123,301.47607964649166,93.967290605902775,48.912666666666667,24.086333333333357,15.278045943851481,24.537077056884755,0.37395008333715313
20220809210000,398.46017438562262,15.242966253119867,0.75645056011738110,0,89.116730523854045,0,221.73651714114848,0,-9.7665977066085894,0,255.59380778085441,3.6227691612724371,8.9763672631875231,1.5196657529697031,1.3444106192369150,0.92266793200507091,0.83135961256889446,-538.48491698492523,-3.5284182343276106E-002,115.19926193135426,210.62099173067620,252.05953374973402,315.54862578230001,93.947143458767357,47.650333333333336,24.172666666666657,15.736839830336569,24.547327344258633,0.31105413589434816
20220809213000,397.95984581485135,15.497347021468117,0.53088183531011413,0,78.245575756964229,0,236.38497954498743,0,-7.9606091840404272,0,246.07014279143743,3.1766361317980083,9.1715244721418561,1.2493685664959464,1.4333046252832295,0.92084487389740677,0.69670029052698124,-360.93611097370922,-5.2640895223099386E-002,100.17111623070042,183.14474840864054,219.17748802371983,274.38420645882155,93.936777586805547,48.030666666666669,24.314333333333309,15.755711731995255,24.763581921047660,0.27925137464199190
20220809220000,397.19141783405320,15.614793441466379,0.58384133591315224,0,95.075505972624470,0,302.19296554370601,1,-7.6563540443779150,0,250.04278306806702,3.1052416925839847,8.2536101125807591,1.3197205805274175,1.1138861131206910,0.83931700434848100,0.73070913722301523,-342.69478299660688,-5.5442921639656605E-002,112.07524908162115,204.90929988856831,245.22409740118232,306.99147059629769,93.931107543619788,48.283666666666669,24.351666666666688,15.714104936048386,24.836364633348239,0.25378135278552610
20220809223000,397.91488030188015,15.961192856656067,0.62376421213339250,0,46.270307743739188,0,152.67512494543132,0,-5.0699685879648477,0,246.50939141465432,3.2551228670057708,7.9303859077711296,1.4182150746185296,1.2817943907562743,0.82460566399592394,0.75521762927560254,-777.45262128100569,-2.4438788268143944E-002,116.71200890298996,213.38677566072732,255.36947072293296,319.69227410133550,93.928933651692716,49.633333333333333,24.257333333333349,15.217768844420160,24.800761280483698,0.20481218498643422